Notices

What's New in latest Release from April 7th, 2021:

- Updated Glossary, including Speed of Maximum Gust, and Total Hourly Precipitation

- Updated national and regional climate services offices contacts and prices information

- Addition of station inventory lists for 1981-2010, 1971-2000, and 1961-1990 Normals.

If you haven't already, please take our survey and provide feedback about our website: https://eccc.sondage-survey.ca/f/LanguageSelection.aspx?s=442ca660-fcf1-47c0-95a9-59707d6fd709

Hourly Data Report for May 01, 2003

TORONTO CITY
ONTARIO

43°40'00.000" N
79°24'00.000" W
112.50 m
6158355
71508
XTO

Download Data

Hourly Data (May 2003)
Hourly Data Report for May 1, 2003
TIME
LST
Temp Definition
°C
Dew Point Definition
°C
Rel Hum Definition
%
Precip. Amount Definition
mm

Wind Dir Definition
10's deg

Wind Spd Definition
km/h
Visibility Definition
km
Stn Press Definition
kPa
Hmdx Definition


Wind Chill Definition


Weather Definition


00:00 9.0 2.1 62   LegendMM LegendMM LegendMM 99.79     LegendNANA
01:00 9.2 3.0 65   LegendMM LegendMM LegendMM 99.84     LegendNANA
02:00 8.1 5.1 81   LegendMM LegendMM LegendMM 99.72     LegendNANA
03:00 8.0 4.8 80   LegendMM LegendMM LegendMM 99.59     LegendNANA
04:00 7.6 4.6 81   LegendMM LegendMM LegendMM 99.54     LegendNANA
05:00 7.5 4.8 83   LegendMM LegendMM LegendMM 99.56     LegendNANA
06:00 6.8 5.6 92   LegendMM LegendMM LegendMM 99.43     LegendNANA
07:00 7.6 6.9 95   LegendMM LegendMM LegendMM 99.42     LegendNANA
08:00 8.2 7.6 96   LegendMM LegendMM LegendMM 99.38     LegendNANA
09:00 9.3 8.7 96   LegendMM LegendMM LegendMM 99.20     LegendNANA
10:00 13.4 12.0 91   LegendMM LegendMM LegendMM 99.27     LegendNANA
11:00 16.6 13.7 83   LegendMM LegendMM LegendMM 99.29     LegendNANA
12:00 17.9 14.6 81   LegendMM LegendMM LegendMM 99.36     LegendNANA
13:00 18.7 14.4 76   LegendMM LegendMM LegendMM 99.41     LegendNANA
14:00 19.3 14.1 72   LegendMM LegendMM LegendMM 99.44     LegendNANA
15:00 20.2 13.7 66   LegendMM LegendMM LegendMM 99.48     LegendNANA
16:00 19.4 13.6 69   LegendMM LegendMM LegendMM 99.53     LegendNANA
17:00 17.7 12.0 69   LegendMM LegendMM LegendMM 99.57     LegendNANA
18:00 15.2 10.6 74   LegendMM LegendMM LegendMM 99.66     LegendNANA
19:00 14.3 9.7 74   LegendMM LegendMM LegendMM 99.71     LegendNANA
20:00 13.2 9.3 77   LegendMM LegendMM LegendMM 99.76     LegendNANA
21:00 12.8 9.3 79   LegendMM LegendMM LegendMM 99.75     LegendNANA
22:00 12.2 9.0 81   LegendMM LegendMM LegendMM 99.80     LegendNANA
23:00 12.2 9.2 82   LegendMM LegendMM LegendMM 99.82     LegendNANA

Notes on Data Quality.

Legend

  • E = Estimated
  • M = Missing
  • NA = Not Available*
  • [empty] = Indicates an unobserved value
Date modified: